Regional Weather Roundup
Issued by NWS

Home | Current Version | Previous Version | Graphics & Text | Print | Product List | Glossary On
Versions: 1 2 3 4 5 6 7 8 9 10 11 12 13 14 15 16 17 18 19 20 21 22 23 24 25 26 27 28 29 30 31 32 33 34 35 36 37 38 39 40 41 42 43 44 45 46 47 48 49 50
000
ASUS43 KMPX 012110
RWRMN
WEATHER ROUNDUP FOR MINNESOTA
NATIONAL WEATHER SERVICE TWIN CITIES/CHANHASSEN MN
300 PM CST SUN MAR 01 2015


NOTE: "FAIR" INDICATES FEW OR NO CLOUDS BELOW 12,000 FEET WITH NO
SIGNIFICANT WEATHER AND/OR OBSTRUCTIONS TO VISIBILITY. N/A MEANS
CURRENT SKY AND/OR WEATHER CONDITIONS ARE NOT AVAILABLE.

MNZ060>063-068>070-012200-
   Twin Cities Metro

CITY           SKY/WX    TMP DP  RH WIND       PRES   REMARKS
TWIN CITIES    PTSUNNY   26   8  46 W17G28    30.23S WCI  13
ST PAUL        MOSUNNY   27   7  42 W17G23    30.24F WCI  14
CRYSTAL        PTSUNNY   27   9  46 W14       30.22S WCI  16
BLAINE         MOSUNNY   28   9  43 W17       30.21F WCI  16
LAKEVILLE      SUNNY     25  10  54 W15G22    30.24R WCI  12
EDEN PRAIRIE   MOSUNNY   27   9  46 W18G24    30.23S WCI  14
SOUTH ST PAUL  SUNNY     27   8  44 W18G24    30.24S WCI  14
LAKE ELMO      FAIR      28  12  50 W15G22    30.23S WCI  17
$$
MNZ001>005-007-008-013>017-022>024-027-028-012200-
   Northwest Minnesota

CITY           SKY/WX    TMP DP  RH WIND       PRES   REMARKS
BEMIDJI        FLURRIES  17   9  70 W17       30.14R WCI   1
HALLOCK        MOSUNNY   18  12  79 NW14      30.21S WCI   4
ROSEAU         MOSUNNY   18  10  73 W14G21    30.15R WCI   4
WARROAD        PTSUNNY   18  10  73 W9G16     30.13R WCI   6
THIEF RVR FALL PTSUNNY   16  10  79 W13       30.20R WCI   2
CROOKSTON      FLURRIES  18  12  79 NW13      30.24R WCI   4
FOSSTON        LGT SNOW  18   9  68 W12       30.19R WCI   5
DETROIT LAKES  LGT SNOW  21  14  73 NW12G18   30.19R WCI   9
MOORHEAD       LGT RAIN  21  16  79 NW17      30.24R WCI   7
PARK RAPIDS    CLOUDY    20  11  68 W18       30.14R WCI   5
MAHNOMEN       LGT SNOW  17  11  78 W8        30.19S WCI   7
$$
MNZ006-009>011-018-025>026-012200-
   North Central Minnesota

CITY           SKY/WX    TMP DP  RH WIND       PRES   REMARKS
BAUDETTE       CLOUDY    18   7  62 W13       30.10R WCI   5
FLAG ISLAND    MOSUNNY   18   7  62 NW17      30.10R WCI   2
INTL FALLS     MOSUNNY   18   4  54 W16       30.08R WCI   3
WASKISH        CLOUDY    18  10  73 SW14      30.14R HAZE    WCI   4
BIG FORK       SUNNY     21   5  49 W7        30.09S WCI  13
LONGVILLE      CLOUDY    25   9  50 W7G16     30.12R WCI  17
GRAND RAPIDS   CLOUDY    19  10  68 NW12      30.09S WCI   7
CRANE LAKE     PTSUNNY   19   3  49 W7        30.08S WCI  10
ORR            MOSUNNY   18   1  49 W12G18    30.04S WCI   5
COOK           MOSUNNY   19   7  58 W17       30.07R WCI   4
WALKER         CLOUDY    21   8  57 W10G22    30.12S WCI  10
$$
MNZ012-019>021-037-012200-
   Northeast Minnesota

CITY           SKY/WX    TMP DP  RH WIND       PRES   REMARKS
DULUTH         MOSUNNY   22   6  50 W17G28    30.06S WCI   8
ELY            MOSUNNY   21   3  45 W10G20    30.02S WCI  10
HIBBING        CLOUDY    22   7  52 W13G22    30.07S WCI  10
EVELETH        MOSUNNY   23   9  54 W14       30.06S WCI  11
DULUTH HARBOR  SUNNY     25   9  50 W14G24    30.13S WCI  13
SILVER BAY     SUNNY     28   1  31 W10G20    30.03R WCI  19
GRAND MARAIS     N/A     30   5  34 W13G22    30.01F WCI  20
G MARAIS ARPRT MOSUNNY   21   0  39 W9G18     29.94S WCI  11
$$
MNZ029>031-032-039>041-046>048-054>057-064-012200-
   West Central Minnesota

CITY           SKY/WX    TMP DP  RH WIND       PRES   REMARKS
FERGUS FALLS   FLURRIES  21  12  68 NW17      30.25R WCI   7
MORRIS         PTSUNNY   27  16  63 W22       30.22R WCI  12
ALEXANDRIA     CLOUDY    23  12  62 W17G25    30.19S WCI   9
ELBOW LAKE     LGT SNOW  23  17  78 W16       30.21S WCI  10
WADENA         FLURRIES  19  12  73 W10       30.17S WCI   8
APPLETON       PTSUNNY   28  18  64 W22       30.25S WCI  15
BENSON         CLOUDY    30  16  55 NW20G28   30.23S WCI  18
ORTONVILLE     CLOUDY    27  16  63 W16       30.25R WCI  14
MADISON        PTSUNNY   28  16  59 NW17G30   30.25S WCI  16
WILLMAR        FAIR      28  14  54 W20G25    30.23S WCI  15
$$
MNZ033>034-036-042>043-049>051-058-059-012200-
   Central Minnesota

CITY           SKY/WX    TMP DP  RH WIND       PRES   REMARKS
ST CLOUD       MOSUNNY   26   8  46 W18G25    30.19F WCI  13
SAUK CENTRE    FAIR      25  11  55 W16G23    30.19F WCI  12
PAYNESVILLE    MOSUNNY   24   9  52 W15       30.21S WCI  11
PINE RIVER     CLOUDY    21  10  63 W9G16     30.17R WCI  11
BRAINERD       PTSUNNY   23   8  52 W16       30.15F WCI  10
STAPLES        CLOUDY    21  10  63 W17       30.17S WCI   7
LONG PRAIRIE   PTSUNNY   25  10  54 W13       30.19S WCI  13
LITTLE FALLS   MOSUNNY   27   9  46 W14       30.18S WCI  15
LITCHFIELD     PTSUNNY   27  12  54 W10G21    30.22S WCI  17
BUFFALO        PTSUNNY   27  10  50 W12G18    30.23F WCI  16
MAPLE LAKE     PTSUNNY   29  15  54 W12G17    30.22S WCI  19
$$
MNZ037-044-045-052-053-012200-
   East Central Minnesota

CITY           SKY/WX    TMP DP  RH WIND       PRES   REMARKS
PRINCETON      MOSUNNY   27  12  54 W16G24    30.19S WCI  14
MORA           PTSUNNY   25   9  50 W12       30.19S WCI  14
CAMBRIDGE      MOSUNNY   27  10  50 W13G18    30.18S WCI  16
RUSH CITY      CLOUDY    24   8  50 W9G17     30.19F WCI  15
MOOSE LAKE     MOSUNNY   25   7  46 W14G20    30.12S WCI  13
HINCKLEY       MOCLDY    25   9  50 W14       30.17S WCI  13
CLOQUET        MOSUNNY   21   3  45 W12G22    30.10R WCI   9
MCGREGOR       MOSUNNY   25   9  50 W10G17    30.13S WCI  15
$$
MNZ071>073-080-081-089-090-097-098-012200-
   Southwest Minnesota

CITY           SKY/WX    TMP DP  RH WIND       PRES   REMARKS
MONTEVIDEO     CLOUDY    30  16  55 N13G22    30.26R WCI  20
GRANITE FALLS  CLOUDY    31  17  56 W23       30.27R WCI  17
CANBY          CLOUDY    29  15  57 W17G28    30.27R WCI  17
MARSHALL       MOSUNNY   28  12  50 W24       30.27S WCI  14
REDWOOD FALLS  MOSUNNY   31  13  47 W21G29    30.25S WCI  18
OLIVIA         MOSUNNY   28  16  59 NW17G30   30.24R WCI  16
PIPESTONE      MOSUNNY   28  16  59 NW20      30.25F WCI  15
WINDOM         SUNNY     28  14  54 W21G29    30.25S WCI  15
WORTHINGTON    SUNNY     34  10  37 W23G29    30.28F WCI  22
JACKSON        SUNNY     28  14  54 W22       30.27S WCI  15
TRACY          SUNNY     31  15  50 W14G23    30.26S WCI  21
SLAYTON        SUNNY     28  12  50 W20G25    30.26S WCI  15
$$
MNZ065>067-074>077-082>085-091>093-012200-
   South Central Minnesota

CITY           SKY/WX    TMP DP  RH WIND       PRES   REMARKS
MANKATO        PTSUNNY   28  12  50 W17G23    30.26S WCI  16
NEW ULM        MOSUNNY   28  12  50 W17G23    30.25F WCI  16
ST JAMES       SUNNY     30  12  47 W21       30.28S WCI  17
FAIRMONT       MOSUNNY   28  10  47 W21       30.27R WCI  15
GLENCOE        PTSUNNY   29  16  57 W17G23    30.23F WCI  17
FARIBAULT      SUNNY     27  10  50 W13G20      N/A  WCI  16
OWATONNA       SUNNY     25  10  54 W16       30.25F WCI  12
WASECA         SUNNY     25  14  63 W14       30.28S WCI  13
ALBERT LEA     SUNNY     25  12  58 W8        30.27S WCI  16
$$
MNZ078>079-086>088-094>096-012200-
   Southeast Minnesota

CITY           SKY/WX    TMP DP  RH WIND       PRES   REMARKS
ROCHESTER      SUNNY     20   9  62 W17       30.24F WCI   5
RED WING       SUNNY     27   7  43 W15G23    30.24S WCI  15
STANTON        SUNNY     26  11  53 W16G22    30.24S WCI  13
DODGE CENTER   SUNNY     21  10  63 W15G21    30.24S WCI   8
WINONA         SUNNY     28  10  47 NW13G20   30.27S WCI  18
AUSTIN         SUNNY     21  10  63 W18       30.27R WCI   6
PRESTON        SUNNY     19   8  61 W14       30.26S WCI   6
$$
ABBREVIATIONS USED IN REMARKS
   TC - TEMPERATURES IN CELSIUS
  WCI - WIND CHILL INDEX
   HX - HEAT INDEX
  VSB - VISIBILITY
$$



USA.gov is the U.S. government's official web portal to all federal, state and local government web resources and services.